Find Starlink 11402

NORAD ID: 61874 Int'l Des: 2024-204 Owner: SPXS Country: US Constellation: starlink operational
LEOCIRCULAR

Live Position

Loading 3D Globe...

About Starlink 11402

Description loading...

Upcoming Passes

Passes for default location (London). Set your location on the main map for personalized predictions.

Altitude History

Loading altitude history...

Two-Line Element Set

1 61874U 24204A 26123.59591473 .00000099 00000-0 56973-5 0 9998
2 61874 53.1598 85.9574 0002533 78.5569 281.5734 15.69704573 86124
Epoch: May 3, 2026 • Age: 12 hours

Current Status

Altitude 361.1 km
Velocity 7.69 km/s
Sub-Earth Point -3.97°S, 179.1°W
Launch Date Nov 9, 2024
Age 1.4 years
Type internet

Technical Details

Classification Payload
Mass 960.00 kg
Dry Mass 910.00 kg
Total Mass 960.00 kg
Length 0.30 m
Diameter 4.10 m
Span 29.00 m
Shape Box + pan
Manufacturer SPXS
Bus Type Starlink V2MD
Phase Status In Orbit
Owner/State SPXS/US

Most Searched